Date String (YYYY-MM-DD hh:mm:ss) UTC,Instrument flags,Ambient pressure (hPa),Sample flow (lpm),Bypass flow (lpm),Sample temperature (°C),Ambient temperature (°C),ASC tube jacket temperature (°C),LED temperature (°C),Box temperature (°C),Sample RH (%),Span deviation,Mass concentration (μg/m³),Mass concentration (μg/m³),Mass concentration (μg/m³)
DateTimeUTC,F1_M11,P_M11,Q1_M11,Q2_M11,T1_M11,T2_M11,T3_M11,T4_M11,T5_M11,U1_M11,ZSPAN_M11,X0_M11,X2_M11,X1_M11
2022-12-18 13:00:00,,0819.4,5.03,0.00,22.2,21.0,00.0,30.9,23.9,05.9,0000.0,0013.42,0004.88,0003.96
2022-12-18 13:01:00,,0819.4,5.03,0.00,22.1,20.8,00.0,31.0,23.9,05.9,0000.0,0013.72,0004.87,0003.99
2022-12-18 13:02:00,,0819.4,4.94,0.00,22.1,20.7,00.0,31.0,23.8,05.9,0000.0,0013.58,0004.91,0004.02
2022-12-18 13:03:00,,0819.5,5.03,0.00,22.1,20.6,00.0,30.9,23.8,05.9,0000.0,0013.50,0004.93,0004.02
2022-12-18 13:04:00,,0819.6,5.02,0.00,22.1,20.5,00.0,30.9,23.8,05.9,0000.0,0014.20,0004.99,0004.04
2022-12-18 13:05:00,,0819.6,4.95,0.00,22.0,20.4,00.0,30.9,23.7,05.9,0000.0,0014.76,0005.02,0004.05
2022-12-18 13:06:00,,0819.6,5.04,0.00,22.0,20.7,00.0,30.9,23.8,05.9,0000.0,0015.30,0005.04,0004.04
2022-12-18 13:07:00,,0819.7,4.98,0.00,22.1,21.7,00.0,30.9,24.0,05.9,0000.0,0015.45,0005.07,0004.04
2022-12-18 13:08:00,,0819.7,5.03,0.00,22.2,22.3,00.0,30.9,24.2,05.8,0000.0,0015.54,0005.08,0004.00
2022-12-18 13:09:00,,0819.7,4.97,0.00,22.2,21.9,00.0,30.9,24.1,05.8,0000.0,0015.72,0005.07,0003.97
2022-12-18 13:10:00,,0819.7,5.03,0.00,22.2,21.4,00.0,31.0,24.0,05.8,0000.0,0015.47,0005.03,0003.96
2022-12-18 13:11:00,,0819.6,4.98,0.00,22.2,21.0,00.0,31.0,23.9,05.8,0000.0,0014.56,0005.00,0003.94
2022-12-18 13:12:00,,0819.5,4.99,0.00,22.1,20.7,00.0,31.0,23.8,05.8,0000.0,0014.32,0005.01,0003.93
2022-12-18 13:13:00,,0819.5,5.02,0.00,22.1,20.5,00.0,31.0,23.7,05.8,0000.0,0013.54,0004.96,0003.91
2022-12-18 13:14:00,,0819.4,5.02,0.00,22.0,20.3,00.0,31.0,23.7,05.8,0000.0,0013.35,0004.93,0003.87
2022-12-18 13:15:00,,0819.4,4.96,0.00,22.0,20.1,00.0,30.9,23.6,05.8,0000.0,0012.96,0004.88,0003.82
2022-12-18 13:16:00,,0819.3,5.01,0.00,21.9,20.0,00.0,30.9,23.5,06.0,0000.0,0012.67,0004.91,0003.80
2022-12-18 13:17:00,,0819.3,5.03,0.00,21.9,20.1,00.0,30.9,23.5,06.0,0000.0,0012.51,0004.92,0003.79
2022-12-18 13:18:00,,0819.4,4.96,0.00,22.0,21.1,00.0,30.8,23.8,06.1,0000.0,0013.32,0004.96,0003.77
2022-12-18 13:19:00,,0819.4,5.03,0.00,22.1,21.9,00.0,30.8,24.0,06.0,0000.0,0013.90,0004.95,0003.77
2022-12-18 13:20:00,,0819.4,4.96,0.00,22.1,21.7,00.0,30.9,24.0,06.1,0000.0,0014.39,0004.97,0003.78
2022-12-18 13:21:00,,0819.4,5.03,0.00,22.1,21.3,00.0,30.9,23.9,06.1,0000.0,0014.96,0004.99,0003.80
2022-12-18 13:22:00,,0819.5,4.99,0.00,22.1,21.0,00.0,30.9,23.8,06.0,0000.0,0015.21,0005.01,0003.80
2022-12-18 13:23:00,,0819.5,4.98,0.00,22.0,20.8,00.0,30.9,23.8,06.0,0000.0,0015.56,0005.00,0003.79
2022-12-18 13:24:00,,0819.5,5.02,0.00,22.0,20.6,00.0,30.9,23.7,06.0,0000.0,0015.72,0005.03,0003.79
2022-12-18 13:25:00,,0819.4,5.00,0.00,22.0,20.5,00.0,30.9,23.7,06.0,0000.0,0015.62,0005.05,0003.80
2022-12-18 13:26:00,,0819.4,4.96,0.00,22.0,20.4,00.0,30.9,23.7,06.1,0000.0,0015.43,0005.07,0003.83
2022-12-18 13:27:00,,0819.5,5.03,0.00,22.0,20.3,00.0,30.9,23.6,06.2,0000.0,0015.58,0005.03,0003.84
2022-12-18 13:28:00,,0819.5,5.00,0.00,21.9,20.3,00.0,30.9,23.6,06.2,0000.0,0016.04,0004.98,0003.85
2022-12-18 13:29:00,,0819.4,4.97,0.00,21.9,20.6,00.0,30.8,23.7,06.2,0000.0,0015.15,0004.92,0003.85
2022-12-18 13:30:00,,0819.4,5.02,0.00,22.0,21.6,00.0,30.8,23.9,06.2,0000.0,0014.59,0004.88,0003.85
2022-12-18 13:31:00,,0819.4,4.97,0.00,22.1,22.1,00.0,30.8,24.1,06.1,0000.0,0014.60,0004.89,0003.84
2022-12-18 13:32:00,,0819.4,5.03,0.00,22.2,21.8,00.0,30.9,24.1,06.1,0000.0,0014.33,0004.89,0003.83
2022-12-18 13:33:00,,0819.4,4.97,0.00,22.1,21.4,00.0,30.9,24.0,06.1,0000.0,0014.29,0004.87,0003.82
2022-12-18 13:34:00,,0819.5,5.03,0.00,22.1,21.1,00.0,30.9,23.9,06.1,0000.0,0014.14,0004.85,0003.82
2022-12-18 13:35:00,,0819.6,4.96,0.00,22.1,20.9,00.0,30.9,23.8,05.7,0000.0,0013.74,0004.75,0003.77
2022-12-18 13:36:00,,0819.4,5.03,0.00,22.1,20.7,00.0,30.9,23.8,05.6,0000.0,0013.11,0004.62,0003.71
2022-12-18 13:37:00,,0819.4,5.01,0.00,22.0,20.6,00.0,30.9,23.8,05.6,0000.0,0012.40,0004.51,0003.65
2022-12-18 13:38:00,,0819.4,4.95,0.00,22.0,20.5,00.0,30.9,23.8,05.7,0000.0,0011.74,0004.44,0003.60
2022-12-18 13:39:00,,0819.4,5.01,0.00,22.0,20.4,00.0,30.9,23.7,05.6,0000.0,0011.01,0004.38,0003.55
2022-12-18 13:40:00,,0819.4,5.04,0.00,22.0,20.4,00.0,30.9,23.7,05.6,0000.0,0010.98,0004.29,0003.49
2022-12-18 13:41:00,,0819.4,4.95,0.00,22.0,20.5,00.0,30.9,23.7,05.5,0000.0,0011.14,0004.26,0003.45
2022-12-18 13:42:00,,0819.4,5.05,0.00,22.0,21.5,00.0,30.8,23.9,05.5,0000.0,0010.21,0004.16,0003.41
2022-12-18 13:43:00,,0819.3,4.97,0.00,22.1,22.2,00.0,30.8,24.1,05.4,0000.0,0010.13,0004.06,0003.36
2022-12-18 13:44:00,,0819.3,5.03,0.00,22.2,22.0,00.0,30.9,24.1,05.4,0000.0,0009.52,0003.97,0003.31
2022-12-18 13:45:00,,0819.3,4.96,0.00,22.2,21.6,00.0,30.9,24.0,05.3,0000.0,0009.37,0003.85,0003.26
2022-12-18 13:46:00,,0819.4,5.03,0.00,22.2,21.2,00.0,30.9,23.9,05.3,-000.4,0009.60,0003.82,0003.25
2022-12-18 13:47:00,,0819.4,5.00,0.00,22.1,21.0,00.0,30.9,23.9,05.3,-000.7,0009.71,0003.83,0003.25
2022-12-18 13:48:00,,0819.5,4.97,0.00,22.1,20.8,00.0,30.9,23.8,05.6,-000.2,0009.91,0003.86,0003.27
2022-12-18 13:49:00,,0819.5,5.03,0.00,22.1,20.5,00.0,30.9,23.8,05.9,0000.0,0010.23,0003.90,0003.31
2022-12-18 13:50:00,,0819.4,4.99,0.00,22.0,20.4,00.0,30.9,23.7,06.0,0000.0,0010.20,0003.98,0003.34
2022-12-18 13:51:00,,0819.3,4.98,0.00,22.0,20.3,00.0,30.9,23.7,05.8,0000.0,0010.20,0004.02,0003.37
2022-12-18 13:52:00,,0819.5,5.03,0.00,22.0,20.2,00.0,30.9,23.7,05.6,0000.0,0010.11,0004.04,0003.37
2022-12-18 13:53:00,,0819.6,5.02,0.00,22.0,20.6,00.0,30.9,23.7,05.7,0000.0,0010.05,0004.04,0003.37
2022-12-18 13:54:00,,0819.5,4.97,0.00,22.0,21.6,00.0,30.8,23.9,05.8,0000.0,0009.53,0004.10,0003.40
2022-12-18 13:55:00,,0819.5,5.03,0.00,22.2,22.1,00.0,30.8,24.1,05.8,0000.0,0010.01,0004.14,0003.45
2022-12-18 13:56:00,,0819.5,4.98,0.00,22.2,21.7,00.0,30.9,24.1,05.8,0000.0,0010.29,0004.22,0003.48
2022-12-18 13:57:00,,0819.5,5.03,0.00,22.2,21.4,00.0,30.9,24.0,05.8,0000.0,0010.06,0004.29,0003.52
2022-12-18 13:58:00,,0819.5,4.96,0.00,22.1,21.0,00.0,30.9,23.9,05.8,0000.0,0010.06,0004.34,0003.56
2022-12-18 13:59:00,,0819.6,5.02,0.00,22.1,20.8,00.0,30.9,23.8,05.8,0000.0,0010.75,0004.38,0003.58
